• In Czech Republic
  • List of Countries
  • For 7 days
  • Water Temperature
  • Satellite Maps
  • Weather Map
  • Weather Widgets
  • user-avatar
    Login

    Hourly Weather Kula

    Today, 25 February, Sunday

    Time Temperature Precipitation Wind Pressure Humidity
    00:00 +7°C° 0.1 mm 3 mps 695 mmHg 86%
    01:00 +7°C° 0.1 mm 3 mps 695 mmHg 86%
    02:00 +5°C° 0.1 mm 3 mps 695 mmHg 86%
    03:00 +6°C° 0.4 mm 2 mps 696 mmHg 86%
    04:00 +6°C° 0.4 mm 2 mps 696 mmHg 87%
    05:00 +6°C° 0.4 mm 2 mps 696 mmHg 87%
    06:00 +6°C° 0.6 mm 2 mps 696 mmHg 87%
    07:00 +6°C° 0.6 mm 2 mps 697 mmHg 87%
    08:00 +6°C° 0.6 mm 2 mps 697 mmHg 86%
    09:00 +6°C° 0.2 mm 2 mps 697 mmHg 83%
    10:00 +7°C° 0.2 mm 2 mps 698 mmHg 80%
    11:00 +7°C° 0.2 mm 2 mps 698 mmHg 77%
    12:00 +8°C° 0.1 mm 2 mps 698 mmHg 74%
    13:00 +8°C° 0.1 mm 2 mps 698 mmHg 71%
    14:00 +9°C° 0.1 mm 2 mps 698 mmHg 69%
    15:00 +9°C° 0.1 mm 2 mps 698 mmHg 68%
    16:00 +9°C° 0.1 mm 2 mps 698 mmHg 68%
    17:00 +9°C° 0.1 mm 2 mps 698 mmHg 68%
    18:00 +9°C° 0 mm 1 mps 698 mmHg 73%
    19:00 +8°C° 0 mm 1 mps 698 mmHg 78%
    20:00 +7°C° 0 mm 1 mps 698 mmHg 83%
    21:00 +6°C° 0 mm 1 mps 698 mmHg 84%
    22:00 +6°C° 0 mm 1 mps 697 mmHg 85%
    23:00 +5°C° 0 mm 0 mps 697 mmHg 86%

    Tomorrow, 26 February, Monday

    Time Temperature Precipitation Wind Pressure Humidity
    00:00 +6°C° 0 mm 1 mps 697 mmHg 87%
    01:00 +5°C° 0 mm 1 mps 697 mmHg 87%
    02:00 +5°C° 0 mm 1 mps 697 mmHg 87%
    03:00 +5°C° 0 mm 1 mps 696 mmHg 87%
    04:00 +4°C° 0 mm 2 mps 696 mmHg 86%
    05:00 +4°C° 0 mm 2 mps 695 mmHg 86%
    06:00 +4°C° 0 mm 2 mps 695 mmHg 84%
    07:00 +5°C° 0 mm 2 mps 695 mmHg 82%
    08:00 +5°C° 0 mm 2 mps 695 mmHg 80%
    09:00 +7°C° 0 mm 3 mps 695 mmHg 71%
    10:00 +8°C° 0 mm 4 mps 694 mmHg 62%
    11:00 +10°C° 0 mm 5 mps 694 mmHg 53%
    12:00 +10°C° 0.1 mm 5 mps 693 mmHg 53%
    13:00 +11°C° 0.1 mm 6 mps 692 mmHg 53%
    14:00 +11°C° 0.1 mm 6 mps 691 mmHg 53%
    15:00 +10°C° 1.3 mm 5 mps 691 mmHg 62%
    16:00 +9°C° 1.3 mm 5 mps 691 mmHg 70%
    17:00 +8°C° 1.3 mm 5 mps 690 mmHg 78%
    18:00 +7°C° 1.1 mm 4 mps 691 mmHg 81%
    19:00 +6°C° 1.1 mm 4 mps 691 mmHg 84%
    20:00 +6°C° 1.1 mm 4 mps 692 mmHg 87%
    21:00 +6°C° 0.5 mm 4 mps 692 mmHg 87%
    22:00 +5°C° 0.5 mm 5 mps 693 mmHg 87%
    23:00 +4°C° 0.5 mm 6 mps 693 mmHg 87%

    Day after tomorrow, 27 February, Tuesday

    Time Temperature Precipitation Wind Pressure Humidity
    00:00 +5°C° 0.1 mm 5 mps 694 mmHg 87%
    01:00 +4°C° 0.1 mm 4 mps 694 mmHg 88%
    02:00 +4°C° 0.1 mm 3 mps 695 mmHg 89%
    03:00 +4°C° 0.1 mm 3 mps 695 mmHg 88%
    04:00 +5°C° 0.1 mm 2 mps 695 mmHg 88%
    05:00 +5°C° 0.1 mm 2 mps 696 mmHg 87%
    06:00 +5°C° 0.1 mm 2 mps 696 mmHg 87%
    07:00 +5°C° 0.1 mm 2 mps 696 mmHg 86%
    08:00 +5°C° 0.1 mm 2 mps 697 mmHg 85%
    09:00 +7°C° 0.2 mm 3 mps 697 mmHg 79%
    10:00 +8°C° 0.2 mm 3 mps 698 mmHg 72%
    11:00 +8°C° 0.2 mm 4 mps 698 mmHg 66%
    12:00 +8°C° 0.2 mm 4 mps 698 mmHg 64%
    13:00 +9°C° 0.2 mm 5 mps 698 mmHg 63%
    14:00 +9°C° 0.2 mm 5 mps 698 mmHg 62%
    15:00 +9°C° 0.2 mm 5 mps 698 mmHg 64%
    16:00 +10°C° 0.2 mm 4 mps 698 mmHg 65%
    17:00 +8°C° 0.2 mm 4 mps 699 mmHg 67%
    18:00 +8°C° 0.1 mm 3 mps 699 mmHg 72%
    19:00 +7°C° 0.1 mm 2 mps 700 mmHg 77%
    20:00 +7°C° 0.1 mm 1 mps 700 mmHg 82%
    21:00 +7°C° 0 mm 1 mps 700 mmHg 83%
    22:00 +7°C° 0 mm 1 mps 701 mmHg 85%
    23:00 +6°C° 0 mm 1 mps 701 mmHg 86%

    28 February, Wednesday

    Time Temperature Precipitation Wind Pressure Humidity
    00:00 +6°C° 0 mm 1 mps 701 mmHg 87%
    01:00 +6°C° 0 mm 1 mps 701 mmHg 87%
    02:00 +5°C° 0 mm 1 mps 701 mmHg 88%
    03:00 +5°C° 0 mm 2 mps 700 mmHg 87%
    04:00 +5°C° 0 mm 2 mps 700 mmHg 86%
    05:00 +5°C° 0 mm 2 mps 700 mmHg 85%
    06:00 +4°C° 0 mm 3 mps 700 mmHg 82%
    07:00 +5°C° 0 mm 3 mps 699 mmHg 80%
    08:00 +5°C° 0 mm 3 mps 699 mmHg 77%
    09:00 +7°C° 0.1 mm 5 mps 699 mmHg 69%
    10:00 +8°C° 0.1 mm 6 mps 699 mmHg 62%
    11:00 +10°C° 0.1 mm 7 mps 699 mmHg 54%
    12:00 +10°C° 0.4 mm 7 mps 698 mmHg 59%
    13:00 +10°C° 0.4 mm 8 mps 698 mmHg 63%
    14:00 +10°C° 0.4 mm 8 mps 697 mmHg 67%
    15:00 +10°C° 1.2 mm 8 mps 697 mmHg 72%
    16:00 +9°C° 1.2 mm 7 mps 697 mmHg 76%
    17:00 +9°C° 1.2 mm 6 mps 697 mmHg 80%
    18:00 +8°C° 2.4 mm 6 mps 697 mmHg 84%
    19:00 +8°C° 2.4 mm 6 mps 698 mmHg 87%
    20:00 +7°C° 2.4 mm 5 mps 698 mmHg 90%
    21:00 +7°C° 2.3 mm 5 mps 699 mmHg 90%
    22:00 +6°C° 2.3 mm 4 mps 699 mmHg 90%
    23:00 +5°C° 2.3 mm 4 mps 700 mmHg 90%

    1 March, Thursday

    Time Temperature Precipitation Wind Pressure Humidity
    00:00 +5°C° 0.2 mm 4 mps 700 mmHg 90%
    01:00 +4°C° 0.2 mm 3 mps 701 mmHg 90%
    02:00 +4°C° 0.2 mm 3 mps 701 mmHg 91%
    03:00 +4°C° 0 mm 2 mps 701 mmHg 91%
    04:00 +4°C° 0 mm 2 mps 701 mmHg 91%
    05:00 +3°C° 0 mm 2 mps 702 mmHg 92%
    06:00 +3°C° 0 mm 2 mps 702 mmHg 89%
    07:00 +3°C° 0 mm 2 mps 703 mmHg 87%
    08:00 +3°C° 0 mm 2 mps 703 mmHg 85%
    09:00 +4°C° 0 mm 2 mps 703 mmHg 76%
    10:00 +5°C° 0 mm 2 mps 703 mmHg 67%
    11:00 +6°C° 0 mm 2 mps 704 mmHg 57%
    12:00 +7°C° 0 mm 2 mps 703 mmHg 52%
    13:00 +8°C° 0 mm 2 mps 703 mmHg 48%
    14:00 +9°C° 0 mm 2 mps 702 mmHg 43%
    15:00 +8°C° 0 mm 2 mps 702 mmHg 44%
    16:00 +8°C° 0 mm 2 mps 702 mmHg 46%
    17:00 +8°C° 0 mm 2 mps 702 mmHg 47%
    18:00 +6°C° 0 mm 2 mps 702 mmHg 53%
    19:00 +5°C° 0 mm 2 mps 702 mmHg 59%
    20:00 +5°C° 0 mm 1 mps 703 mmHg 64%
    21:00 +5°C° 0 mm 1 mps 703 mmHg 67%
    22:00 +4°C° 0 mm 1 mps 702 mmHg 69%
    23:00 +4°C° 0 mm 1 mps 702 mmHg 71%

    2 March, Friday

    Time Temperature Precipitation Wind Pressure Humidity
    00:00 +2°C° 0 mm 0 mps 702 mmHg 70%
    01:00 +2°C° 0 mm 0 mps 702 mmHg 70%
    02:00 +2°C° 0 mm 0 mps 702 mmHg 70%
    03:00 +2°C° 0 mm 0 mps 702 mmHg 68%
    04:00 +2°C° 0 mm 0 mps 701 mmHg 67%
    05:00 +3°C° 0 mm 1 mps 701 mmHg 65%
    06:00 +4°C° 0 mm 1 mps 701 mmHg 61%
    07:00 +5°C° 0 mm 1 mps 702 mmHg 57%
    08:00 +6°C° 0 mm 1 mps 702 mmHg 52%
    09:00 +8°C° 0 mm 1 mps 702 mmHg 48%
    10:00 +10°C° 0 mm 1 mps 702 mmHg 43%
    11:00 +12°C° 0 mm 1 mps 701 mmHg 39%
    12:00 +13°C° 0 mm 1 mps 701 mmHg 37%
    13:00 +14°C° 0 mm 1 mps 701 mmHg 36%
    14:00 +15°C° 0 mm 1 mps 700 mmHg 35%
    15:00 +15°C° 0 mm 1 mps 700 mmHg 39%
    16:00 +14°C° 0 mm 1 mps 700 mmHg 43%
    17:00 +14°C° 0 mm 1 mps 700 mmHg 47%
    18:00 +13°C° 0 mm 1 mps 700 mmHg 49%
    19:00 +11°C° 0 mm 1 mps 700 mmHg 52%
    20:00 +10°C° 0 mm 1 mps 700 mmHg 55%
    21:00 +10°C° 0 mm 1 mps 700 mmHg 57%
    22:00 +9°C° 0 mm 1 mps 700 mmHg 59%
    23:00 +8°C° 0 mm 0 mps 700 mmHg 61%
    Show more